STARLINK-32133, 60333

Orbit data source: Space-Track

STARLINK-32133, 60333 is a payload satellite owned by SpaceX/Seattle (US) in LEO that was launched on Fri, 02 Aug 2024 UTC via an FALCON 9 launch vehicle from the Air Force Eastern Test Range (AFETR). Payload-class satellites include a variety of spacecraft equipped with specific instruments for various scientific and technological missions. These include communications satellites like Starlink; space stations such as the ISS; scientific satellites like the Hubble; Earth observation satellites from companies like Planet Labs, Umbra, and HawkEye 360; GPS; miniature CubeSats for education and research; and military/defense satellites.

Loading next visibility...
Identifier
60333, 2024-136E
Orbit
LEO
Last TLE update
19 hours ago
Origin
Manufacturer
SpaceX/Seattle
Mission
Operational Commercial Communications
Bus & Motor
STARLINK V2M, Unknown motor
Mass
730 kg wet, ~700 kg dry
Launch date (UTC)
2024-08-02 (11 months ago)
Launch vehicle
FALCON 9
Launch site
Air Force Eastern Test Range (AFETR)
Object type
Payload
Rocket body
Debris
Shape & HBR
Box + 2 Pan, 29 m
Radar Cross Section
33.884 m², Large (>1 m²)

Expand to show TLE details & history

TLE from 19 hours ago
0 STARLINK-32133
1 60333U 24136E   25189.55887994 -.00000460  00000-0 -34203-5 0  9990
2 60333  53.1596 129.8743 0001296  94.3248 265.7901 15.30187631 53292
Epoch: 2025-07-08T13:24Z
TLE epoch observation values (Epoch: 2025-07-08T13:24:47.226Z)
Latitude
-0.00003°
Longitude
1.92537°
Altitude
476.217 km
Speed
7.629 km/s
True Right ascension
08h 39m 29s
True Declination
0° 00' 00"
Sunlit
Object was in daylight at epoch
Visualization orbit readout
Latitude
-16.26824°
Longitude
-14.25666°
Altitude
480.056 km
Speed
7.626 km/s
Apparent Right ascension
07h 53m 04s
Apparent Declination
-27° 36' 38"
Sunlit
Object is in daylight
Visualization observer readout
Local Sidereal Time
20:17:43
Azimuth
24.374° NE
Elevation
-76.681°
Doppler factor
1
Orbital elements
Apogee altitude
476.397 km
Perigee altitude
474.62 km
Semi-major axis
6,853.645 km
Eccentricity
0.00013
Inclination
53.1596°
RAAN
129.8743°
Arg. of periapsis
94.3248°
True anomaly
Unknown
Mean anomaly
265.7901°
Eccentric anomaly
Unknown
Mean motion
3.82526 °/min
Orbital period
94.11 mins
BSTAR
-0.0000034203
Loading maneuver chart data...
Loading SW <> Apogee altitude chart data...
Loading historical data...
Loading historical data...
Loading historical data...
Loading historical data...
Loading historical data...
Loading historical data...
Loading historical data...

STARLINK-32133 Visibility forecast

Observer location: undefined°, undefined°

Span
Click to sort rows by Start time (UTC) header in descending order
Start Az.
Max El. time (UTC)
Max El. Az.
Max El.
End time (UTC)
End Az.
7 mins2025-07-09 22:30:06.319Z226.893° WSW2025-07-09 22:34:06.319Z61.88° ENE42.782°2025-07-09 22:37:06.319Z51.164° ENE
4 mins2025-07-10 03:28:06.319Z341.528° N2025-07-10 03:30:06.319Z16.034° NNE15.661°2025-07-10 03:32:06.319Z52.911° ENE
6 mins2025-07-10 05:06:06.319Z316.287° NNW2025-07-10 05:09:06.319Z81.712° E41.858°2025-07-10 05:12:06.319Z122.569° SE
|